Location: Newark
(50.5833°N, 5.7333°E)
Time: 11:41:04
(UTC+00:00)

X-37B - Visible Passes

Search period start: 20 September 2020 00:00
Search period end: 30 September 2020 00:00
Orbit: 386 x 387 km, 45.0° (Epoch: 18 September)

Date Brightness Start Highest point End Pass type
(mag) Time Alt. Az. Time Alt. Az. Time Alt. Az.
20 Sep 2.6 03:05:33 21° SE 03:05:33 21° SE 03:07:02 10° ESE visible
20 Sep 2.3 04:37:50 10° WSW 04:40:19 21° SSW 04:42:47 10° SE visible
21 Sep 1.9 03:42:02 25° S 03:42:02 25° S 03:44:37 10° SE visible
22 Sep 2.5 04:18:37 14° SW 04:19:33 16° SSW 04:21:35 10° SSE visible
23 Sep 3.1 03:23:00 14° SSE 03:23:00 14° SSE 03:23:40 10° SE visible
